Regional Weather Roundup
Issued by NWS Charleston, WV

Home | Current Version | Previous Version | Graphics & Text | Print | Product List | Glossary On
Versions: 1 2 3 4 5 6 7 8 9 10 11 12 13 14 15 16 17 18 19 20 21 22 23 24 25 26 27 28 29 30 31 32 33 34 35 36 37 38 39 40 41 42 43 44 45 46 47 48 49 50
000
ASUS41 KRLX 050910
RWRRLX
West Virginia Regional Weather Roundup
National Weather Service Charleston WV
500 AM EDT SUN JUL 05 2015

Note: "fair" indicates few or no clouds below 12,000 feet with no
significant weather and/or obstructions to visibility.

WVZ003-051000-
Northern Panhandle of West Virginia

CITY           SKY/WX    TMP DP  RH WIND       PRES   REMARKS
WHEELING       MOCLDY    61  55  81 CALM      30.10S
$$

WVZ009-051000-
Northwest West Virginia

CITY           SKY/WX    TMP DP  RH WIND       PRES   REMARKS
PARKERSBURG    FOG       61  59  93 CALM      30.10S VSB 1/2
$$

WVZ006-051000-
Western West Virginia

CITY           SKY/WX    TMP DP  RH WIND       PRES   REMARKS
HUNTINGTON     CLOUDY    64  64 100 CALM      30.06R FOG
$$

WVZ015-051000-
West Central West Virginia

CITY           SKY/WX    TMP DP  RH WIND       PRES   REMARKS
CHARLESTON     FOG       65  64  97 NE5       30.07S VSB 1/2
$$

WVZ022-031-051000-
North Central West Virginia

CITY           SKY/WX    TMP DP  RH WIND       PRES   REMARKS
CLARKSBURG     FOG       59  58  96 CALM      30.10R VSB 1/4
MORGANTOWN     PTCLDY    62  58  86 CALM      30.11S FOG
$$

WVZ025-035-042-045-051000-
Southern West Virginia

CITY           SKY/WX    TMP DP  RH WIND       PRES   REMARKS
BECKLEY        MOCLDY    60  58  92 CALM      30.14R FOG
LOGAN          FOG       64  64 100 CALM      30.06R VSB<1/4
BLUEFIELD      LGT RAIN  67  62  84 CALM      30.15S
LEWISBURG      FOG       61  59  93 CALM      30.15R VSB 1/4
$$

WVZ047-051000-
Northern Mountains of West Virginia

CITY           SKY/WX    TMP DP  RH WIND       PRES   REMARKS
ELKINS         FOG       60  58  92 CALM      30.15S VSB 1/2
$$

WVZ052-051000-
Eastern Panhandle of West Virginia

CITY           SKY/WX    TMP DP  RH WIND       PRES   REMARKS
MARTINSBURG    PTCLDY    65  62  90 CALM      30.08F FOG
PETERSBURG     MOCLDY    60  58  92 CALM      30.11S FOG
$$



USA.gov is the U.S. government's official web portal to all federal, state and local government web resources and services.